Baku, Azerbaijan

1:22 AM +04 on November 21, 2018 (GMT +0400)
Bina

Weather History for UBBB - February, 2018

Change the Weather History Date:

Sunday, February 25, 2018

  Actual Average Record
Temperature  
Mean Temperature 48 °F -  
Max Temperature 54 °F - - ()
Min Temperature 43 °F - - ()
Degree Days  
Heating Degree Days 16    
Moisture  
Dew Point 44 °F    
Average Humidity 86    
Maximum Humidity 100    
Minimum Humidity 66    
Precipitation  
Precipitation 0.00 in - - ()
Sea Level Pressure  
Sea Level Pressure 29.82 in    
Wind  
Wind Speed 6 mph ()    
Max Wind Speed 16 mph    
Max Gust Speed -    
Visibility 5.8 miles    
Events      
T = Trace of Precipitation, MM = Missing Value Source: Averaged Metar Reports

Daily Weather History Graph

Daily Weather History Graph

Search for Another Location

Airport or City:

Astronomy

Feb. 25, 2018 Rise Set
Actual Time 7:19 AM +04 6:26 PM +04
Civil Twilight 6:52 AM +04 6:53 PM +04
Nautical Twilight 6:20 AM +04 7:25 PM +04
Astronomical Twilight 5:49 AM +04 7:57 PM +04
Moon 1:24 PM +04 (2/25) 3:21 AM +04 (2/25)
Length of Visible Light 12h 01m
Length of Day
11h 06m
Waxing Gibbous, 72% of the Moon is Illuminated
Feb 25
Waxing Gibbous
Mar 2
Full
Mar 9
Last Quarter
Mar 17
New
Mar 24
First Quarter

Hourly Weather History & Observations

Time (+04) Temp. Windchill Dew Point Humidity Pressure Visibility Wind Dir Wind Speed Gust Speed Precip Events Conditions
12:00 AM 44.6 °F - 41.0 °F 87% 29.89 in 5.0 mi NNW 1.2 mph - N/A   Overcast
12:30 AM 44.6 °F - 41.0 °F 87% 29.89 in 5.0 mi Calm Calm - N/A   Overcast
1:00 AM 44 °F - 41 °F 84% 29.88 in 6 mi Calm Calm - -   Overcast
1:00 AM 44.6 °F - 41.0 °F 87% 29.89 in 5.0 mi Calm Calm - N/A   Overcast
1:30 AM 44.6 °F - 41.0 °F 87% 29.89 in 5.0 mi Calm Calm - N/A   Overcast
2:00 AM 44.6 °F - 42.8 °F 93% 29.86 in 5.0 mi NNE 2.3 mph - N/A   Overcast
2:30 AM 44.6 °F - 42.8 °F 93% 29.86 in 5.0 mi Variable 1.2 mph - N/A   Overcast
3:00 AM 44.6 °F - 42.8 °F 93% 29.86 in 5.0 mi NW 1.2 mph - N/A   Overcast
3:30 AM 44.6 °F - 42.8 °F 93% 29.86 in 5.0 mi ENE 2.3 mph - N/A   Overcast
4:00 AM 44 °F - 41 °F 86% 29.86 in 6 mi NE 2.2 mph - -   Overcast
4:00 AM 44.6 °F - 42.8 °F 93% 29.86 in 5.0 mi East 2.3 mph - N/A   Overcast
4:30 AM 44.6 °F - 42.8 °F 93% 29.86 in 5.0 mi East 2.3 mph - N/A   Overcast
5:00 AM 44.6 °F - 42.8 °F 93% 29.86 in 5.0 mi East 2.3 mph - N/A   Overcast
5:30 AM 44.6 °F 43.1 °F 42.8 °F 93% 29.86 in 5.0 mi ESE 3.5 mph - N/A   Overcast
6:00 AM 44.6 °F 42.2 °F 42.8 °F 93% 29.86 in 5.0 mi SSE 4.6 mph - N/A   Overcast
6:30 AM 44.6 °F 43.1 °F 42.8 °F 93% 29.86 in 5.0 mi SSE 3.5 mph - N/A   Overcast
7:00 AM 45 °F - 42 °F 86% 29.86 in 6 mi ESE 2.2 mph - -   Overcast
7:00 AM 44.6 °F 41.4 °F 42.8 °F 93% 29.86 in 5.0 mi SE 5.8 mph - N/A   Overcast
7:30 AM 44.6 °F 40.2 °F 42.8 °F 93% 29.86 in 5.0 mi SSE 8.1 mph - N/A   Overcast
8:00 AM 44.6 °F 40.2 °F 42.8 °F 93% 29.86 in 5.0 mi SSE 8.1 mph - N/A   Overcast
8:30 AM 44.6 °F 40.2 °F 44.6 °F 100% 29.86 in 6.2 mi South 8.1 mph - N/A   Overcast
9:00 AM 46.4 °F 42.9 °F 44.6 °F 93% 29.86 in 6.2 mi South 6.9 mph - N/A   Overcast
9:30 AM 46.4 °F 42.4 °F 44.6 °F 93% 29.86 in 6.2 mi South 8.1 mph - N/A   Overcast
10:00 AM 46 °F - 44 °F 89% 29.86 in 6 mi South 8.9 mph - -   Overcast
10:00 AM 48.2 °F - 44.6 °F 87% 29.86 in 6.2 mi SSW 5.8 mph - N/A   Overcast
10:30 AM 48.2 °F - 44.6 °F 87% 29.86 in 6.2 mi South 9.2 mph - N/A   Overcast
11:00 AM 50.0 °F - 44.6 °F 82% 29.86 in 6.2 mi SSW 12.7 mph - N/A   Overcast
11:30 AM 50.0 °F - 46.4 °F 87% 29.83 in 6.2 mi SSW 12.7 mph - N/A   Overcast
12:00 PM 50.0 °F - 44.6 °F 82% 29.83 in 6.2 mi SSW 11.5 mph - N/A   Mostly Cloudy
12:30 PM 51.8 °F - 46.4 °F 82% 29.83 in 6.2 mi SSW 11.5 mph - N/A   Mostly Cloudy
1:00 PM 52 °F - 45 °F 69% 29.81 in 6 mi South 15.7 mph - -   Mostly Cloudy
1:00 PM 53.6 °F - 44.6 °F 72% 29.80 in 6.2 mi SSW 11.5 mph - N/A   Scattered Clouds
1:30 PM 53.6 °F - 44.6 °F 72% 29.80 in 6.2 mi South 12.7 mph - N/A   Mostly Cloudy
2:00 PM 53.6 °F - 42.8 °F 67% 29.80 in 6.2 mi South 15.0 mph - N/A   Mostly Cloudy
2:30 PM 53.6 °F - 42.8 °F 67% 29.77 in 6.2 mi SSW 13.8 mph - N/A   Mostly Cloudy
3:00 PM 51.8 °F - 44.6 °F 76% 29.77 in 6.2 mi SSW 15.0 mph - N/A   Mostly Cloudy
3:30 PM 51.8 °F - 44.6 °F 76% 29.77 in 6.2 mi SSW 15.0 mph - N/A   Mostly Cloudy
4:00 PM 51 °F - 43 °F 66% 29.77 in 6 mi South 15.7 mph - -   Mostly Cloudy
4:00 PM 51.8 °F - 44.6 °F 76% 29.77 in 6.2 mi South 12.7 mph - N/A   Mostly Cloudy
4:30 PM 51.8 °F - 46.4 °F 82% 29.77 in 6.2 mi South 15.0 mph - N/A   Mostly Cloudy
5:00 PM 50.0 °F - 46.4 °F 87% 29.77 in 6.2 mi South 15.0 mph - N/A   Mostly Cloudy
5:30 PM 50.0 °F - 46.4 °F 87% 29.77 in 6.2 mi South 16.1 mph - N/A   Mostly Cloudy
6:00 PM 48.2 °F - 46.4 °F 93% 29.77 in 6.2 mi South 15.0 mph - N/A   Mostly Cloudy
6:30 PM 48.2 °F - 46.4 °F 93% 29.77 in 6.2 mi South 15.0 mph - N/A   Overcast
7:00 PM 48.2 °F - 46.4 °F 93% 29.77 in 6.2 mi South 15.0 mph - N/A   Overcast
7:30 PM 48.2 °F - 46.4 °F 93% 29.77 in 6.2 mi South 15.0 mph - N/A   Overcast
8:00 PM 48.2 °F - 44.6 °F 87% 29.77 in 6.2 mi South 11.5 mph - N/A   Overcast
8:30 PM 48.2 °F - 46.4 °F 93% 29.77 in 6.2 mi South 10.4 mph - N/A   Overcast
9:00 PM 48.2 °F - 44.6 °F 87% 29.77 in 6.2 mi South 9.2 mph - N/A   Overcast
9:30 PM 48.2 °F - 46.4 °F 93% 29.77 in 6.2 mi South 8.1 mph - N/A   Overcast
10:00 PM 48 °F - 44 °F 82% 29.77 in 6 mi SSE 13.4 mph - -   Overcast
10:00 PM 48.2 °F - 44.6 °F 87% 29.77 in 6.2 mi SSW 6.9 mph - N/A   Overcast
10:30 PM 48.2 °F - 44.6 °F 87% 29.77 in 6.2 mi South 11.5 mph - N/A   Overcast
11:00 PM 48.2 °F - 44.6 °F 87% 29.77 in 6.2 mi SSW 10.4 mph - N/A   Overcast
11:30 PM 48.2 °F - 44.6 °F 87% 29.77 in 6.2 mi SSW 11.5 mph - N/A   Overcast